Starlink 1972

operational
NORAD ID: 47627 Int'l Des: 2021-012 Owner: SPXS Country: US Constellation: starlink
LEOCIRCULARSTARLINK_TYPE

About Starlink 1972

Description loading...

Live Position

Loading 3D Globe...

Upcoming Passes

Altitude History

Altitude vs Time

uPlot chart will show altitude changes over time

Two-Line Element Set

1 47627U 21012H 25347.46596578 .00013227 00000-0 90549-3 0 9998
2 47627 53.0556 3.6905 0001455 84.5395 275.5760 15.06386705268294
Epoch: Dec 13, 2025 • Age: 21 hours

Current Status

Altitude 548.2 km
Velocity 7.59 km/s
Sub-Earth Point 29.65°N, 56.42°W
Launch Date Feb 16, 2021
Age 4.8 years
Type internet

Technical Details

Classification Payload
Mass 260.00 kg
Dry Mass 248.00 kg
Total Mass 260.00 kg
Length 0.20 m
Diameter 2.80 m
Span 9.00 m
Shape Box + pan
Manufacturer SPXS
Bus Type Starlink
Phase Status In Orbit
Owner/State SPXS/US

Large Constellations

Loading constellations...